Time,TemperatureF,DewpointF,PressureIn,WindDirection,WindDirectionDegrees,WindSpeedMPH,WindSpeedGustMPH,Humidity,HourlyPrecipIn,Conditions,Clouds,dailyrainin,SolarRadiationWatts/m^2,SoftwareType,DateUTC
2013-09-24 00:00:00,42.0,40.0,-100.00,NNW,337,0.0,-999.0,93,-99.99,,,-99.99,0.000000,,2013-09-24 04:00:00,
2013-09-24 00:44:00,42.0,40.0,-100.00,NNW,337,0.0,-999.0,93,-99.99,,,-99.99,0.000000,,2013-09-24 04:44:00,
2013-09-24 00:54:00,42.0,40.0,-100.00,NNW,337,0.0,-999.0,93,-99.99,,,-99.99,0.000000,,2013-09-24 04:54:00,
2013-09-24 01:00:00,41.0,39.0,-100.00,NNW,337,0.0,-999.0,93,-99.99,,,-99.99,0.000000,,2013-09-24 05:00:00,
2013-09-24 01:43:00,41.0,39.0,-100.00,NNW,337,0.0,-999.0,93,-99.99,,,-99.99,0.000000,,2013-09-24 05:43:00,
2013-09-24 01:53:00,41.0,39.0,-100.00,NNW,337,0.0,-999.0,93,-99.99,,,-99.99,0.000000,,2013-09-24 05:53:00,
2013-09-24 02:00:00,41.0,39.0,-100.00,NNW,337,0.0,-999.0,94,-99.99,,,-99.99,0.000000,,2013-09-24 06:00:00,
2013-09-24 02:42:00,41.0,39.0,-100.00,NNW,337,0.0,-999.0,94,-99.99,,,-99.99,0.000000,,2013-09-24 06:42:00,
2013-09-24 02:52:00,41.0,39.0,-100.00,NNW,337,0.0,-999.0,94,-99.99,,,-99.99,0.000000,,2013-09-24 06:52:00,
2013-09-24 03:00:00,40.0,39.0,-100.00,NNW,337,0.0,-999.0,94,-99.99,,,-99.99,0.000000,,2013-09-24 07:00:00,
2013-09-24 03:43:00,40.0,39.0,-100.00,NNW,337,0.0,-999.0,94,-99.99,,,-99.99,0.000000,,2013-09-24 07:43:00,
2013-09-24 03:52:00,40.0,39.0,-100.00,NNW,337,0.0,-999.0,94,-99.99,,,-99.99,0.000000,,2013-09-24 07:52:00,
2013-09-24 04:00:00,39.0,38.0,-100.00,NNW,337,0.0,-999.0,94,-99.99,,,-99.99,0.000000,,2013-09-24 08:00:00,
2013-09-24 04:42:00,39.0,38.0,-100.00,NNW,337,0.0,-999.0,94,-99.99,,,-99.99,0.000000,,2013-09-24 08:42:00,
2013-09-24 04:52:00,39.0,38.0,-100.00,NNW,337,0.0,-999.0,94,-99.99,,,-99.99,0.000000,,2013-09-24 08:52:00,
2013-09-24 05:00:00,39.0,38.0,-100.00,NE,45,0.0,-999.0,95,-99.99,,,-99.99,0.000000,,2013-09-24 09:00:00,
2013-09-24 05:43:00,39.0,38.0,-100.00,NE,45,0.0,-999.0,95,-99.99,,,-99.99,0.000000,,2013-09-24 09:43:00,
2013-09-24 05:54:00,39.0,38.0,-100.00,NE,45,0.0,-999.0,95,-99.99,,,-99.99,0.000000,,2013-09-24 09:54:00,
2013-09-24 06:00:00,39.0,38.0,-100.00,ESE,112,0.0,-999.0,95,-99.99,,,-99.99,0.000000,,2013-09-24 10:00:00,
2013-09-24 06:42:00,39.0,38.0,-100.00,ESE,112,0.0,-999.0,95,-99.99,,,-99.99,0.000000,,2013-09-24 10:42:00,
2013-09-24 06:53:00,39.0,38.0,-100.00,ESE,112,0.0,-999.0,95,-99.99,,,-99.99,0.000000,,2013-09-24 10:53:00,
2013-09-24 07:00:00,39.0,38.0,-100.00,NNW,337,0.0,-999.0,95,-99.99,,,-99.99,0.000000,,2013-09-24 11:00:00,
2013-09-24 07:42:00,39.0,38.0,-100.00,NNW,337,0.0,-999.0,95,-99.99,,,-99.99,0.000000,,2013-09-24 11:42:00,
2013-09-24 07:52:00,39.0,38.0,-100.00,NNW,337,0.0,-999.0,95,-99.99,,,-99.99,0.000000,,2013-09-24 11:52:00,
2013-09-24 08:00:00,39.0,38.0,-100.00,WSW,247,1.0,-999.0,95,-99.99,,,-99.99,6.960000,,2013-09-24 12:00:00,
2013-09-24 08:42:00,39.0,38.0,-100.00,WSW,247,1.0,-999.0,95,-99.99,,,-99.99,6.960000,,2013-09-24 12:42:00,
2013-09-24 08:52:00,39.0,38.0,-100.00,WSW,247,1.0,-999.0,95,-99.99,,,-99.99,6.960000,,2013-09-24 12:52:00,
2013-09-24 09:00:00,44.0,43.0,-100.00,SW,225,0.0,-999.0,96,-99.99,,,-99.99,111.360001,,2013-09-24 13:00:00,
2013-09-24 09:42:00,44.0,43.0,-100.00,SW,225,0.0,-999.0,96,-99.99,,,-99.99,111.360001,,2013-09-24 13:42:00,
2013-09-24 09:52:00,44.0,43.0,-100.00,SW,225,0.0,-999.0,96,-99.99,,,-99.99,111.360001,,2013-09-24 13:52:00,
2013-09-24 10:00:00,53.0,50.0,-100.00,SSE,157,0.0,-999.0,90,-99.99,,,-99.99,306.239990,,2013-09-24 14:00:00,
2013-09-24 10:42:00,53.0,50.0,-100.00,SSE,157,0.0,-999.0,90,-99.99,,,-99.99,306.239990,,2013-09-24 14:42:00,
2013-09-24 10:52:00,53.0,50.0,-100.00,SSE,157,0.0,-999.0,90,-99.99,,,-99.99,306.239990,,2013-09-24 14:52:00,
2013-09-24 11:00:00,57.0,46.0,-100.00,SE,135,0.0,-999.0,66,-99.99,,,-99.99,467.480011,,2013-09-24 15:00:00,
2013-09-24 11:43:00,57.0,46.0,-100.00,SE,135,0.0,-999.0,66,-99.99,,,-99.99,467.480011,,2013-09-24 15:43:00,
2013-09-24 11:54:00,57.0,46.0,-100.00,SE,135,0.0,-999.0,66,-99.99,,,-99.99,467.480011,,2013-09-24 15:54:00,
2013-09-24 12:00:00,60.0,45.0,-100.00,SE,135,1.0,-999.0,57,-99.99,,,-99.99,679.760010,,2013-09-24 16:00:00,
2013-09-24 12:43:00,60.0,45.0,-100.00,SE,135,1.0,-999.0,57,-99.99,,,-99.99,679.760010,,2013-09-24 16:43:00,
2013-09-24 12:53:00,60.0,45.0,-100.00,SE,135,1.0,-999.0,57,-99.99,,,-99.99,679.760010,,2013-09-24 16:53:00,
2013-09-24 13:00:00,61.0,45.0,-100.00,SE,135,1.0,-999.0,55,-99.99,,,-99.99,671.640015,,2013-09-24 17:00:00,
2013-09-24 13:43:00,61.0,45.0,-100.00,SE,135,1.0,-999.0,55,-99.99,,,-99.99,671.640015,,2013-09-24 17:43:00,
2013-09-24 13:54:00,61.0,45.0,-100.00,SE,135,1.0,-999.0,55,-99.99,,,-99.99,671.640015,,2013-09-24 17:54:00,
2013-09-24 14:00:00,62.0,45.0,-100.00,SE,135,1.0,-999.0,52,-99.99,,,-99.99,716.880005,,2013-09-24 18:00:00,
2013-09-24 14:42:00,62.0,45.0,-100.00,SE,135,1.0,-999.0,52,-99.99,,,-99.99,716.880005,,2013-09-24 18:42:00,
2013-09-24 14:53:00,62.0,45.0,-100.00,SE,135,1.0,-999.0,52,-99.99,,,-99.99,716.880005,,2013-09-24 18:53:00,
2013-09-24 15:00:00,64.0,45.0,-100.00,SE,135,2.0,-999.0,50,-99.99,,,-99.99,655.400024,,2013-09-24 19:00:00,
2013-09-24 15:42:00,64.0,45.0,-100.00,SE,135,2.0,-999.0,50,-99.99,,,-99.99,655.400024,,2013-09-24 19:42:00,
2013-09-24 15:52:00,64.0,45.0,-100.00,SE,135,2.0,-999.0,50,-99.99,,,-99.99,655.400024,,2013-09-24 19:52:00,
2013-09-24 16:00:00,65.0,44.0,-100.00,ESE,112,2.0,-999.0,47,-99.99,,,-99.99,570.719971,,2013-09-24 20:00:00,
2013-09-24 16:42:00,65.0,44.0,-100.00,ESE,112,2.0,-999.0,47,-99.99,,,-99.99,570.719971,,2013-09-24 20:42:00,
2013-09-24 16:52:00,65.0,44.0,-100.00,ESE,112,2.0,-999.0,47,-99.99,,,-99.99,570.719971,,2013-09-24 20:52:00,
2013-09-24 17:00:00,65.0,44.0,-100.00,SE,135,2.0,-999.0,46,-99.99,,,-99.99,445.440002,,2013-09-24 21:00:00,
2013-09-24 17:44:00,65.0,44.0,-100.00,SE,135,2.0,-999.0,46,-99.99,,,-99.99,445.440002,,2013-09-24 21:44:00,
2013-09-24 17:54:00,65.0,44.0,-100.00,SE,135,2.0,-999.0,46,-99.99,,,-99.99,445.440002,,2013-09-24 21:54:00,
2013-09-24 18:00:00,65.0,45.0,-100.00,East,90,2.0,-999.0,48,-99.99,,,-99.99,286.519989,,2013-09-24 22:00:00,
2013-09-24 18:43:00,65.0,45.0,-100.00,East,90,2.0,-999.0,48,-99.99,,,-99.99,286.519989,,2013-09-24 22:43:00,
2013-09-24 18:54:00,65.0,45.0,-100.00,East,90,2.0,-999.0,48,-99.99,,,-99.99,286.519989,,2013-09-24 22:54:00,
2013-09-24 19:00:00,62.0,45.0,-100.00,East,90,1.0,-999.0,52,-99.99,,,-99.99,119.480003,,2013-09-24 23:00:00,
2013-09-24 19:43:00,62.0,45.0,-100.00,East,90,1.0,-999.0,52,-99.99,,,-99.99,119.480003,,2013-09-24 23:43:00,
2013-09-24 19:53:00,62.0,45.0,-100.00,East,90,1.0,-999.0,52,-99.99,,,-99.99,119.480003,,2013-09-24 23:53:00,
2013-09-24 20:00:00,55.0,46.0,-100.00,ESE,112,0.0,-999.0,70,-99.99,,,-99.99,4.640000,,2013-09-25 00:00:00,
2013-09-24 20:42:00,55.0,46.0,-100.00,ESE,112,0.0,-999.0,70,-99.99,,,-99.99,4.640000,,2013-09-25 00:42:00,
2013-09-24 20:52:00,55.0,46.0,-100.00,ESE,112,0.0,-999.0,70,-99.99,,,-99.99,4.640000,,2013-09-25 00:52:00,
2013-09-24 21:00:00,50.0,45.0,-100.00,ESE,112,0.0,-999.0,83,-99.99,,,-99.99,0.000000,,2013-09-25 01:00:00,
2013-09-24 21:42:00,50.0,45.0,-100.00,ESE,112,0.0,-999.0,83,-99.99,,,-99.99,0.000000,,2013-09-25 01:42:00,
2013-09-24 21:52:00,50.0,45.0,-100.00,ESE,112,0.0,-999.0,83,-99.99,,,-99.99,0.000000,,2013-09-25 01:52:00,
2013-09-24 22:00:00,48.0,45.0,-100.00,SSW,202,1.0,-999.0,87,-99.99,,,-99.99,0.000000,,2013-09-25 02:00:00,
2013-09-24 22:42:00,48.0,45.0,-100.00,SSW,202,1.0,-999.0,87,-99.99,,,-99.99,0.000000,,2013-09-25 02:42:00,
2013-09-24 22:52:00,48.0,45.0,-100.00,SSW,202,1.0,-999.0,87,-99.99,,,-99.99,0.000000,,2013-09-25 02:52:00,
2013-09-24 23:00:00,47.0,44.0,-100.00,ESE,112,0.0,-999.0,91,-99.99,,,-99.99,0.000000,,2013-09-25 03:00:00,
2013-09-24 23:45:00,47.0,44.0,-100.00,ESE,112,0.0,-999.0,91,-99.99,,,-99.99,0.000000,,2013-09-25 03:45:00,
2013-09-24 23:55:00,47.0,44.0,-100.00,ESE,112,0.0,-999.0,91,-99.99,,,-99.99,0.000000,,2013-09-25 03:55:00,